This is the latest recevied weather packets stored in our database for station/object KG4GJX. If no packets are shown the sender has not sent any weather packets the latest 10 day(s).
| Time | Temp. | Humidity | Pressure | Rain* | Wind** | Luminosity | Snow |
|---|---|---|---|---|---|---|---|
| 1777488943 | 26.11° C | 74% | 1011.1 hPa | 0 mm | - | - | - |
| 1777488281 | 25.56° C | 75% | 1011.1 hPa | 0 mm | - | - | - |
| 1777487618 | 25.56° C | 76% | 1011.5 hPa | 0 mm | - | - | - |
| 1777486956 | 25° C | 84% | 1011.5 hPa | 0 mm | - | - | - |
| 1777484306 | 23.89° C | 82% | 1011.5 hPa | 0 mm | - | - | - |
| 1777483644 | 23.33° C | 89% | 1011.8 hPa | 0 mm | - | - | - |
| 1777482982 | 22.78° C | 90% | 1011.8 hPa | 0 mm | - | - | - |
| 1777480332 | 21.11° C | 96% | 1012.5 hPa | 0 mm | - | - | - |
| 1777479007 | 20.56° C | 99% | 1012.5 hPa | 0 mm | - | - | - |
| 1777477682 | 20° C | 100% | 1013.2 hPa | 0 mm | - | - | - |
| 1777475695 | 19.44° C | 100% | 1013.2 hPa | 0 mm | - | - | - |
| 1777471721 | 18.89° C | 100% | 1013.2 hPa | 0 mm | - | - | - |
| 1777471058 | 18.33° C | 100% | 1013.2 hPa | 0 mm | - | - | - |
| 1777469071 | 17.78° C | 100% | 1013.2 hPa | 0 mm | - | - | - |
| 1777468409 | 17.78° C | 100% | 1013.5 hPa | 0 mm | - | - | - |
| 1777465759 | 17.22° C | 100% | 1013.5 hPa | 0 mm | - | - | - |
| 1777465096 | 16.67° C | 100% | 1013.5 hPa | 0 mm | - | - | - |
| 1777464434 | 16.67° C | 100% | 1013.5 hPa | 0 mm | - | - | - |
| 1777463772 | 16.11° C | 100% | 1013.5 hPa | 0 mm | - | - | - |
| 1777462447 | 16.11° C | 100% | 1013.2 hPa | 0 mm | - | - | - |
| 1777461784 | 16.11° C | 100% | 1012.8 hPa | 0 mm | - | - | - |
| 1777461122 | 16.11° C | 100% | 1012.5 hPa | 0 mm | - | - | - |
| 1777460460 | 15.56° C | 100% | 1012.1 hPa | 0 mm | - | - | - |
| 1777459797 | 16.11° C | 100% | 1012.1 hPa | 0 mm | - | - | - |
| 1777459135 | 16.11° C | 100% | 1011.8 hPa | 0 mm | - | - | - |
* Rain latest hour (hover to see other rain measurements)
** Current wind speed in m/s (hover to see current wind gust speed)